#Datum;Uhrzeit;WR;Pac;DaySum;Status;WR;Pac;DaySum;Status;Pdc1;Udc;Temp;WR;Pac;DaySum;Status;Pdc1;Udc;Temp;WR;Pac;DaySum;Status;Pdc1;Udc;Temp;WR;Pac;DaySum;Status;Pdc1;Pdc2;Udc1;Udc2;Temp;WR;Pac;DaySum;Status;Pdc1;Pdc2;Udc1;Udc2;Temp;WR;Pac;DaySum;Status;Pdc1;Udc;Temp;WR;Pac;DaySum;Status;Pdc1;Udc;Temp;WR;Pac;DaySum;Status;Pdc1;Udc;Temp
29.01.19;23:55:00;1;395;10864;0;2;0;7603;0;0;0;0;3;0;4413;0;0;0;0;4;0;5904;0;0;0;0;5;0;17141;0;0;0;0;0;0;6;0;13290;0;0;0;0;0;0;7;0;11905;0;0;0;0;8;0;10981;0;0;0;0;9;0;5782;0;0;0;0
29.01.19;23:50:00;1;287;10837;0;2;0;7603;0;0;0;0;3;0;4413;0;0;0;0;4;0;5904;0;0;0;0;5;0;17141;0;0;0;0;0;0;6;0;13290;0;0;0;0;0;0;7;0;11905;0;0;0;0;8;0;10981;0;0;0;0;9;0;5782;0;0;0;0
29.01.19;23:45:00;1;446;10814;0;2;0;7603;0;0;0;0;3;0;4413;0;0;0;0;4;0;5904;0;0;0;0;5;0;17141;0;0;0;0;0;0;6;0;13290;0;0;0;0;0;0;7;0;11905;0;0;0;0;8;0;10981;0;0;0;0;9;0;5782;0;0;0;0
29.01.19;23:40:00;1;250;10769;0;2;0;7603;0;0;0;0;3;0;4413;0;0;0;0;4;0;5904;0;0;0;0;5;0;17141;0;0;0;0;0;0;6;0;13290;0;0;0;0;0;0;7;0;11905;0;0;0;0;8;0;10981;0;0;0;0;9;0;5782;0;0;0;0
29.01.19;23:35:00;1;295;10749;0;2;0;7603;0;0;0;0;3;0;4413;0;0;0;0;4;0;5904;0;0;0;0;5;0;17141;0;0;0;0;0;0;6;0;13290;0;0;0;0;0;0;7;0;11905;0;0;0;0;8;0;10981;0;0;0;0;9;0;5782;0;0;0;0
29.01.19;23:30:00;1;235;10724;0;2;0;7603;0;0;0;0;3;0;4413;0;0;0;0;4;0;5904;0;0;0;0;5;0;17141;0;0;0;0;0;0;6;0;13290;0;0;0;0;0;0;7;0;11905;0;0;0;0;8;0;10981;0;0;0;0;9;0;5782;0;0;0;0
29.01.19;23:25:00;1;957;10704;0;2;0;7603;0;0;0;0;3;0;4413;0;0;0;0;4;0;5904;0;0;0;0;5;0;17141;0;0;0;0;0;0;6;0;13290;0;0;0;0;0;0;7;0;11905;0;0;0;0;8;0;10981;0;0;0;0;9;0;5782;0;0;0;0
29.01.19;23:20:00;1;232;10660;0;2;0;7603;0;0;0;0;3;0;4413;0;0;0;0;4;0;5904;0;0;0;0;5;0;17141;0;0;0;0;0;0;6;0;13290;0;0;0;0;0;0;7;0;11905;0;0;0;0;8;0;10981;0;0;0;0;9;0;5782;0;0;0;0
29.01.19;23:15:00;1;234;10640;0;2;0;7603;0;0;0;0;3;0;4413;0;0;0;0;4;0;5904;0;0;0;0;5;0;17141;0;0;0;0;0;0;6;0;13290;0;0;0;0;0;0;7;0;11905;0;0;0;0;8;0;10981;0;0;0;0;9;0;5782;0;0;0;0
29.01.19;23:10:00;1;239;10621;0;2;0;7603;0;0;0;0;3;0;4413;0;0;0;0;4;0;5904;0;0;0;0;5;0;17141;0;0;0;0;0;0;6;0;13290;0;0;0;0;0;0;7;0;11905;0;0;0;0;8;0;10981;0;0;0;0;9;0;5782;0;0;0;0
29.01.19;23:05:00;1;505;10600;0;2;0;7603;0;0;0;0;3;0;4413;0;0;0;0;4;0;5904;0;0;0;0;5;0;17141;0;0;0;0;0;0;6;0;13290;0;0;0;0;0;0;7;0;11905;0;0;0;0;8;0;10981;0;0;0;0;9;0;5782;0;0;0;0
29.01.19;23:00:00;1;369;10549;0;2;0;7603;0;0;0;0;3;0;4413;0;0;0;0;4;0;5904;0;0;0;0;5;0;17141;0;0;0;0;0;0;6;0;13290;0;0;0;0;0;0;7;0;11905;0;0;0;0;8;0;10981;0;0;0;0;9;0;5782;0;0;0;0
29.01.19;22:55:00;1;355;10518;0;2;0;7603;0;0;0;0;3;0;4413;0;0;0;0;4;0;5904;0;0;0;0;5;0;17141;2;0;0;0;0;0;6;0;13290;2;0;0;0;0;0;7;0;11905;0;0;0;0;8;0;10981;0;0;0;0;9;0;5782;0;0;0;0
29.01.19;22:50:00;1;615;10486;0;2;0;7603;0;0;0;0;3;0;4413;0;0;0;0;4;0;5904;0;0;0;0;5;0;17141;2;0;0;0;0;0;6;0;13290;2;0;0;0;0;0;7;0;11905;0;0;0;0;8;0;10981;0;0;0;0;9;0;5782;0;0;0;0
29.01.19;22:45:00;1;649;10427;0;2;0;7603;0;0;0;0;3;0;4413;0;0;0;0;4;0;5904;0;0;0;0;5;0;17141;2;0;0;0;0;0;6;0;13290;2;0;0;0;0;0;7;0;11905;0;0;0;0;8;0;10981;0;0;0;0;9;0;5782;0;0;0;0
29.01.19;22:40:00;1;443;10387;0;2;0;7603;0;0;0;0;3;0;4413;0;0;0;0;4;0;5904;0;0;0;0;5;0;17141;2;0;0;0;0;0;6;0;13290;2;0;0;0;0;0;7;0;11905;0;0;0;0;8;0;10981;0;0;0;0;9;0;5782;0;0;0;0
29.01.19;22:35:00;1;445;10350;0;2;0;7603;0;0;0;0;3;0;4413;0;0;0;0;4;0;5904;0;0;0;0;5;0;17141;2;0;0;0;0;0;6;0;13290;2;0;0;0;0;0;7;0;11905;0;0;0;0;8;0;10981;0;0;0;0;9;0;5782;0;0;0;0
29.01.19;22:30:00;1;669;10312;0;2;0;7603;0;0;0;0;3;0;4413;0;0;0;0;4;0;5904;0;0;0;0;5;0;17141;2;0;0;0;0;0;6;0;13290;2;0;0;0;0;0;7;0;11905;0;0;0;0;8;0;10981;0;0;0;0;9;0;5782;0;0;0;0
29.01.19;22:25:00;1;576;10248;0;2;0;7603;0;0;0;0;3;0;4413;0;0;0;0;4;0;5904;0;0;0;0;5;0;17141;2;0;0;0;0;0;6;0;13290;2;0;0;0;0;0;7;0;11905;0;0;0;0;8;0;10981;0;0;0;0;9;0;5782;0;0;0;0
29.01.19;22:20:00;1;608;10200;0;2;0;7603;0;0;0;0;3;0;4413;0;0;0;0;4;0;5904;0;0;0;0;5;0;17141;2;0;0;0;0;0;6;0;13290;2;0;0;0;0;0;7;0;11905;0;0;0;0;8;0;10981;0;0;0;0;9;0;5782;0;0;0;0
29.01.19;22:15:00;1;578;10149;0;2;0;7603;0;0;0;0;3;0;4413;0;0;0;0;4;0;5904;0;0;0;0;5;0;17141;2;0;0;0;0;0;6;0;13290;2;0;0;0;0;0;7;0;11905;0;0;0;0;8;0;10981;0;0;0;0;9;0;5782;0;0;0;0
29.01.19;22:10:00;1;811;10101;0;2;0;7603;0;0;0;0;3;0;4413;0;0;0;0;4;0;5904;0;0;0;0;5;0;17141;2;0;0;0;0;0;6;0;13290;2;0;0;0;0;0;7;0;11905;0;0;0;0;8;0;10981;0;0;0;0;9;0;5782;0;0;0;0
29.01.19;22:05:00;1;690;10022;0;2;0;7603;0;0;0;0;3;0;4413;0;0;0;0;4;0;5904;0;0;0;0;5;0;17141;2;0;0;0;0;0;6;0;13290;2;0;0;0;0;0;7;0;11905;0;0;0;0;8;0;10981;0;0;0;0;9;0;5782;0;0;0;0
29.01.19;22:00:00;1;670;9964;0;2;0;7603;0;0;0;0;3;0;4413;0;0;0;0;4;0;5904;0;0;0;0;5;0;17141;2;0;0;0;0;0;6;0;13290;2;0;0;0;0;0;7;0;11905;0;0;0;0;8;0;10981;0;0;0;0;9;0;5782;0;0;0;0
29.01.19;21:55:00;1;649;9908;0;2;0;7603;0;0;0;0;3;0;4413;0;0;0;0;4;0;5904;0;0;0;0;5;0;17141;2;0;0;0;0;0;6;0;13290;2;0;0;0;0;0;7;0;11905;0;0;0;0;8;0;10981;0;0;0;0;9;0;5782;0;0;0;0
29.01.19;21:50:00;1;1061;9843;0;2;0;7603;0;0;0;0;3;0;4413;0;0;0;0;4;0;5904;0;0;0;0;5;0;17141;2;0;0;0;0;0;6;0;13290;2;0;0;0;0;0;7;0;11905;0;0;0;0;8;0;10981;0;0;0;0;9;0;5782;0;0;0;0
29.01.19;21:45:00;1;667;9773;0;2;0;7603;0;0;0;0;3;0;4413;0;0;0;0;4;0;5904;0;0;0;0;5;0;17141;2;0;0;0;0;0;6;0;13290;2;0;0;0;0;0;7;0;11905;0;0;0;0;8;0;10981;0;0;0;0;9;0;5782;0;0;0;0
29.01.19;21:40:00;1;662;9717;0;2;0;7603;0;0;0;0;3;0;4413;0;0;0;0;4;0;5904;0;0;0;0;5;0;17141;2;0;0;0;0;0;6;0;13290;2;0;0;0;0;0;7;0;11905;0;0;0;0;8;0;10981;0;0;0;0;9;0;5782;0;0;0;0
29.01.19;21:35:00;1;795;9661;0;2;0;7603;0;0;0;0;3;0;4413;0;0;0;0;4;0;5904;0;0;0;0;5;0;17141;2;0;0;0;0;0;6;0;13290;2;0;0;0;0;0;7;0;11905;0;0;0;0;8;0;10981;0;0;0;0;9;0;5782;0;0;0;0
29.01.19;21:30:00;1;592;9587;0;2;0;7603;0;0;0;0;3;0;4413;0;0;0;0;4;0;5904;0;0;0;0;5;0;17141;2;0;0;0;0;0;6;0;13290;2;0;0;0;0;0;7;0;11905;0;0;0;0;8;0;10981;0;0;0;0;9;0;5782;0;0;0;0
29.01.19;21:25:00;1;590;9537;0;2;0;7603;0;0;0;0;3;0;4413;0;0;0;0;4;0;5904;0;0;0;0;5;0;17141;2;0;0;0;0;0;6;0;13290;2;0;0;0;0;0;7;0;11905;0;0;0;0;8;0;10981;0;0;0;0;9;0;5782;0;0;0;0
29.01.19;21:20:00;1;589;9488;0;2;0;7603;0;0;0;0;3;0;4413;0;0;0;0;4;0;5904;0;0;0;0;5;0;17141;2;0;0;0;0;0;6;0;13290;2;0;0;0;0;0;7;0;11905;0;0;0;0;8;0;10981;0;0;0;0;9;0;5782;0;0;0;0
29.01.19;21:15:00;1;1024;9438;0;2;0;7603;0;0;0;0;3;0;4413;0;0;0;0;4;0;5904;0;0;0;0;5;0;17141;2;0;0;0;0;0;6;0;13290;2;0;0;0;0;0;7;0;11905;0;0;0;0;8;0;10981;0;0;0;0;9;0;5782;0;0;0;0
29.01.19;21:10:00;1;665;9361;0;2;0;7603;0;0;0;0;3;0;4413;0;0;0;0;4;0;5904;0;0;0;0;5;0;17141;2;0;0;0;0;0;6;0;13290;2;0;0;0;0;0;7;0;11905;0;0;0;0;8;0;10981;0;0;0;0;9;0;5782;0;0;0;0
29.01.19;21:05:00;1;676;9305;0;2;0;7603;0;0;0;0;3;0;4413;0;0;0;0;4;0;5904;0;0;0;0;5;0;17141;2;0;0;0;0;0;6;0;13290;2;0;0;0;0;0;7;0;11905;0;0;0;0;8;0;10981;0;0;0;0;9;0;5782;0;0;0;0
29.01.19;21:00:00;1;675;9249;0;2;0;7603;0;0;0;0;3;0;4413;0;0;0;0;4;0;5904;0;0;0;0;5;0;17141;2;0;0;0;0;0;6;0;13290;2;0;0;0;0;0;7;0;11905;0;0;0;0;8;0;10981;0;0;0;0;9;0;5782;0;0;0;0
29.01.19;20:55:00;1;1227;9193;0;2;0;7603;0;0;0;0;3;0;4413;0;0;0;0;4;0;5904;0;0;0;0;5;0;17141;2;0;0;0;0;0;6;0;13290;2;0;0;0;0;0;7;0;11905;0;0;0;0;8;0;10981;0;0;0;0;9;0;5782;0;0;0;0
29.01.19;20:50:00;1;591;9118;0;2;0;7603;0;0;0;0;3;0;4413;0;0;0;0;4;0;5904;0;0;0;0;5;0;17141;2;0;0;0;0;0;6;0;13290;2;0;0;0;0;0;7;0;11905;0;0;0;0;8;0;10981;0;0;0;0;9;0;5782;0;0;0;0
29.01.19;20:45:00;1;597;9069;0;2;0;7603;0;0;0;0;3;0;4413;0;0;0;0;4;0;5904;0;0;0;0;5;0;17141;2;0;0;0;0;0;6;0;13290;2;0;0;0;0;0;7;0;11905;0;0;0;0;8;0;10981;0;0;0;0;9;0;5782;0;0;0;0
29.01.19;20:40:00;1;602;9019;0;2;0;7603;0;0;0;0;3;0;4413;0;0;0;0;4;0;5904;0;0;0;0;5;0;17141;2;0;0;0;0;0;6;0;13290;2;0;0;0;0;0;7;0;11905;0;0;0;0;8;0;10981;0;0;0;0;9;0;5782;0;0;0;0
29.01.19;20:35:00;1;848;8968;0;2;0;7603;0;0;0;0;3;0;4413;0;0;0;0;4;0;5904;0;0;0;0;5;0;17141;2;0;0;0;0;0;6;0;13290;2;0;0;0;0;0;7;0;11905;0;0;0;0;8;0;10981;0;0;0;0;9;0;5782;0;0;0;0
29.01.19;20:30:00;1;644;8891;0;2;0;7603;0;0;0;0;3;0;4413;0;0;0;0;4;0;5904;0;0;0;0;5;0;17141;2;0;0;0;0;0;6;0;13290;2;0;0;0;0;0;7;0;11905;0;0;0;0;8;0;10981;0;0;0;0;9;0;5782;0;0;0;0
29.01.19;20:25:00;1;622;8837;0;2;0;7603;0;0;0;0;3;0;4413;0;0;0;0;4;0;5904;0;0;0;0;5;0;17141;2;0;0;0;0;0;6;0;13290;2;0;0;0;0;0;7;0;11905;0;0;0;0;8;0;10981;0;0;0;0;9;0;5782;0;0;0;0
29.01.19;20:20:00;1;700;8784;0;2;0;7603;0;0;0;0;3;0;4413;0;0;0;0;4;0;5904;0;0;0;0;5;0;17141;2;0;0;0;0;0;6;0;13290;2;0;0;0;0;0;7;0;11905;0;0;0;0;8;0;10981;0;0;0;0;9;0;5782;0;0;0;0
29.01.19;20:15:00;1;865;8720;0;2;0;7603;0;0;0;0;3;0;4413;0;0;0;0;4;0;5904;0;0;0;0;5;0;17141;2;0;0;0;0;0;6;0;13290;2;0;0;0;0;0;7;0;11905;0;0;0;0;8;0;10981;0;0;0;0;9;0;5782;0;0;0;0
29.01.19;20:10:00;1;1025;8643;0;2;0;7603;0;0;0;0;3;0;4413;0;0;0;0;4;0;5904;0;0;0;0;5;0;17141;2;0;0;0;0;0;6;0;13290;2;0;0;0;0;0;7;0;11905;0;0;0;0;8;0;10981;0;0;0;0;9;0;5782;0;0;0;0
29.01.19;20:05:00;1;461;8562;0;2;0;7603;0;0;0;0;3;0;4413;0;0;0;0;4;0;5904;0;0;0;0;5;0;17141;2;0;0;0;0;0;6;0;13290;2;0;0;0;0;0;7;0;11905;0;0;0;0;8;0;10981;0;0;0;0;9;0;5782;0;0;0;0
29.01.19;20:00:00;1;468;8524;0;2;0;7603;0;0;0;0;3;0;4413;0;0;0;0;4;0;5904;0;0;0;0;5;0;17141;2;0;0;0;0;0;6;0;13290;2;0;0;0;0;0;7;0;11905;0;0;0;0;8;0;10981;0;0;0;0;9;0;5782;0;0;0;0
29.01.19;19:55:00;1;561;8484;0;2;0;7603;0;0;0;0;3;0;4413;0;0;0;0;4;0;5904;0;0;0;0;5;0;17141;2;0;0;0;0;0;6;0;13290;2;0;0;0;0;0;7;0;11905;0;0;0;0;8;0;10981;0;0;0;0;9;0;5782;0;0;0;0
29.01.19;19:50:00;1;930;8438;0;2;0;7603;0;0;0;0;3;0;4413;0;0;0;0;4;0;5904;0;0;0;0;5;0;17141;2;0;0;0;0;0;6;0;13290;2;0;0;0;0;0;7;0;11905;0;0;0;0;8;0;10981;0;0;0;0;9;0;5782;0;0;0;0
29.01.19;19:45:00;1;563;8368;0;2;0;7603;0;0;0;0;3;0;4413;0;0;0;0;4;0;5904;0;0;0;0;5;0;17141;2;0;0;0;0;0;6;0;13290;2;0;0;0;0;0;7;0;11905;0;0;0;0;8;0;10981;0;0;0;0;9;0;5782;0;0;0;0
29.01.19;19:40:00;1;547;8321;0;2;0;7603;0;0;0;0;3;0;4413;0;0;0;0;4;0;5904;0;0;0;0;5;0;17141;2;0;0;0;0;0;6;0;13290;2;0;0;0;0;0;7;0;11905;0;0;0;0;8;0;10981;0;0;0;0;9;0;5782;0;0;0;0
29.01.19;19:35:00;1;547;8276;0;2;0;7603;0;0;0;0;3;0;4413;0;0;0;0;4;0;5904;0;0;0;0;5;0;17141;2;0;0;0;0;0;6;0;13290;2;0;0;0;0;0;7;0;11905;0;0;0;0;8;0;10981;0;0;0;0;9;0;5782;0;0;0;0
29.01.19;19:30:00;1;778;8230;0;2;0;7603;0;0;0;0;3;0;4413;0;0;0;0;4;0;5904;0;0;0;0;5;0;17141;2;0;0;0;0;0;6;0;13290;2;0;0;0;0;0;7;0;11905;0;0;0;0;8;0;10981;0;0;0;0;9;0;5782;0;0;0;0
29.01.19;19:25:00;1;550;8156;0;2;0;7603;0;0;0;0;3;0;4413;0;0;0;0;4;0;5904;0;0;0;0;5;0;17141;2;0;0;0;0;0;6;0;13290;2;0;0;0;0;0;7;0;11905;0;0;0;0;8;0;10981;0;0;0;0;9;0;5782;0;0;0;0
29.01.19;19:20:00;1;480;8114;0;2;0;7603;0;0;0;0;3;0;4413;0;0;0;0;4;0;5904;0;0;0;0;5;0;17141;2;0;0;0;0;0;6;0;13290;2;0;0;0;0;0;7;0;11905;0;0;0;0;8;0;10981;0;0;0;0;9;0;5782;0;0;0;0
29.01.19;19:15:00;1;503;8073;0;2;0;7603;0;0;0;0;3;0;4413;0;0;0;0;4;0;5904;0;0;0;0;5;0;17141;2;0;0;0;0;0;6;0;13290;2;0;0;0;0;0;7;0;11905;0;0;0;0;8;0;10981;0;0;0;0;9;0;5782;0;0;0;0
29.01.19;19:10:00;1;528;8031;0;2;0;7603;0;0;0;0;3;0;4413;0;0;0;0;4;0;5904;0;0;0;0;5;0;17141;2;0;0;0;0;0;6;0;13290;2;0;0;0;0;0;7;0;11905;0;0;0;0;8;0;10981;0;0;0;0;9;0;5782;0;0;0;0
29.01.19;19:05:00;1;957;7985;0;2;0;7603;0;0;0;0;3;0;4413;0;0;0;0;4;0;5904;0;0;0;0;5;0;17141;2;0;0;0;0;0;6;0;13290;2;0;0;0;0;0;7;0;11905;0;0;0;0;8;0;10981;0;0;0;0;9;0;5782;0;0;0;0
29.01.19;19:00:00;1;532;7915;0;2;0;7603;0;0;0;0;3;0;4413;0;0;0;0;4;0;5904;0;0;0;0;5;0;17141;2;0;0;0;0;0;6;0;13290;2;0;0;0;0;0;7;0;11905;0;0;0;0;8;0;10981;0;0;0;0;9;0;5782;0;0;0;0
29.01.19;18:55:00;1;505;7870;0;2;0;7603;0;0;0;0;3;0;4413;0;0;0;0;4;0;5904;0;0;0;0;5;0;17141;2;0;0;0;0;0;6;0;13290;2;0;0;0;0;0;7;0;11905;0;0;0;0;8;0;10981;0;0;0;0;9;0;5782;0;0;0;0
29.01.19;18:50:00;1;505;7828;0;2;0;7603;0;0;0;0;3;0;4413;0;0;0;0;4;0;5904;0;0;0;0;5;0;17141;2;0;0;0;0;0;6;0;13290;2;0;0;0;0;0;7;0;11905;0;0;0;0;8;0;10981;0;0;0;0;9;0;5782;0;0;0;0
29.01.19;18:45:00;1;508;7786;0;2;0;7603;0;0;0;0;3;0;4413;0;0;0;0;4;0;5904;0;0;0;0;5;0;17141;2;0;0;0;0;0;6;0;13290;2;0;0;0;0;0;7;0;11905;0;0;0;0;8;0;10981;0;0;0;0;9;0;5782;0;0;0;0
29.01.19;18:40:00;1;724;7743;0;2;0;7603;0;0;0;0;3;0;4413;0;0;0;0;4;0;5904;0;0;0;0;5;0;17141;2;0;0;0;0;0;6;0;13290;2;0;0;0;0;0;7;0;11905;0;0;0;0;8;0;10981;0;0;0;0;9;0;5782;0;0;0;0
29.01.19;18:35:00;1;627;7676;0;2;0;7603;0;0;0;0;3;0;4413;0;0;0;0;4;0;5904;0;0;0;0;5;0;17141;2;0;0;0;0;0;6;0;13290;2;0;0;0;0;0;7;0;11905;0;0;0;0;8;0;10981;0;0;0;0;9;0;5782;0;0;0;0
29.01.19;18:30:00;1;560;7626;0;2;0;7603;0;0;0;0;3;0;4413;0;0;0;0;4;0;5904;0;0;0;0;5;0;17141;2;0;0;0;0;0;6;0;13290;2;0;0;0;0;0;7;0;11905;0;0;0;0;8;0;10981;0;0;0;0;9;0;5782;0;0;0;0
29.01.19;18:25:00;1;607;7579;0;2;0;7603;0;0;0;0;3;0;4413;0;0;0;0;4;0;5904;0;0;0;0;5;0;17141;2;0;0;0;0;0;6;0;13290;2;0;0;0;0;0;7;0;11905;0;0;0;0;8;0;10981;0;0;0;0;9;0;5782;0;0;0;0
29.01.19;18:20:00;1;1528;7510;0;2;0;7603;0;0;0;0;3;0;4413;0;0;0;0;4;0;5904;0;0;0;0;5;0;17141;2;0;0;0;0;0;6;0;13290;2;0;0;0;0;0;7;0;11905;0;0;0;0;8;0;10981;0;0;0;0;9;0;5782;0;0;0;0
29.01.19;18:15:00;1;622;7407;0;2;0;7603;0;0;0;0;3;0;4413;0;0;0;0;4;0;5904;0;0;0;0;5;0;17141;2;0;0;0;0;0;6;0;13290;2;0;0;0;0;0;7;0;11905;0;0;0;0;8;0;10981;0;0;0;0;9;0;5782;0;0;0;0
29.01.19;18:10:00;1;643;7354;0;2;0;7603;0;0;0;0;3;0;4413;0;0;0;0;4;0;5904;0;0;0;0;5;0;17141;2;0;0;0;0;0;6;0;13290;2;0;0;0;0;0;7;0;11905;0;0;0;0;8;0;10981;0;0;0;0;9;0;5782;0;0;0;0
29.01.19;18:05:00;1;1145;7296;0;2;0;7603;0;0;0;0;3;0;4413;0;0;0;0;4;0;5904;0;0;0;0;5;0;17141;2;0;0;0;0;0;6;0;13290;2;0;0;0;0;0;7;0;11905;0;0;0;0;8;0;10981;0;0;0;0;9;0;5782;0;0;0;0
29.01.19;18:00:00;1;621;7213;0;2;0;7603;0;0;0;0;3;0;4413;0;0;0;0;4;0;5904;0;0;0;0;5;0;17141;2;0;0;0;0;0;6;0;13290;2;0;0;0;0;0;7;0;11905;0;0;0;0;8;0;10981;0;0;0;0;9;0;5782;0;0;0;0
29.01.19;17:55:00;1;570;7151;0;2;0;7603;0;0;0;0;3;0;4413;0;0;0;0;4;0;5904;0;0;0;0;5;0;17141;2;0;0;0;0;0;6;0;13290;2;0;0;0;0;0;7;0;11905;0;0;0;0;8;0;10981;0;0;0;0;9;0;5782;0;0;0;0
29.01.19;17:50:00;1;582;7103;0;2;0;7603;0;0;0;0;3;0;4413;0;0;0;0;4;0;5904;0;0;0;0;5;0;17141;2;0;0;0;0;0;6;0;13290;2;0;0;0;0;0;7;0;11905;0;0;0;0;8;0;10981;0;0;0;0;9;0;5782;0;0;0;0
29.01.19;17:45:00;1;630;7054;0;2;0;7603;0;0;0;0;3;0;4413;0;0;0;0;4;0;5904;0;0;0;0;5;0;17141;2;0;0;0;0;0;6;0;13290;2;0;0;0;0;0;7;0;11905;0;0;0;0;8;0;10981;0;0;0;0;9;0;5782;0;0;0;0
29.01.19;17:40:00;1;616;7001;0;2;0;7603;0;0;0;0;3;0;4413;0;0;0;0;4;0;5904;0;0;0;0;5;0;17141;2;0;0;0;0;0;6;0;13290;2;0;0;0;0;0;7;0;11905;0;0;0;0;8;0;10981;0;0;0;0;9;0;5782;0;0;0;0
29.01.19;17:35:00;1;637;6949;0;2;0;7603;0;0;0;0;3;0;4413;0;0;0;0;4;0;5904;0;0;0;0;5;0;17141;2;0;0;0;0;0;6;0;13290;2;0;0;0;0;0;7;0;11905;0;0;0;0;8;0;10981;0;0;0;0;9;0;5782;0;0;0;0
29.01.19;17:30:00;1;639;6895;0;2;0;7603;0;0;0;0;3;0;4413;0;0;0;0;4;0;5904;0;0;0;0;5;0;17141;2;0;0;0;0;0;6;0;13290;2;0;0;0;0;0;7;0;11905;0;0;0;0;8;0;10981;0;0;0;0;9;0;5782;0;0;0;0
29.01.19;17:25:00;1;659;6842;0;2;0;7603;0;0;149;6;3;0;4413;0;0;239;11;4;0;5904;0;0;0;0;5;0;17141;2;0;0;0;0;0;6;0;13290;2;0;0;0;0;0;7;0;11905;0;0;0;0;8;0;10981;0;0;0;0;9;0;5782;0;0;0;0
29.01.19;17:20:00;1;855;6788;0;2;0;7603;6;0;303;11;3;0;4413;6;0;344;14;4;0;5904;0;0;20;2;5;0;17141;2;0;0;0;0;0;6;0;13290;2;0;0;0;0;0;7;0;11905;0;0;0;0;8;0;10981;0;0;0;0;9;0;5782;0;0;0;0
29.01.19;17:15:00;1;552;6711;0;2;0;7603;6;0;350;12;3;0;4413;6;3;398;14;4;0;5904;2;0;88;8;5;0;17141;2;0;1;210;209;14;6;0;13290;2;3;1;89;187;10;7;0;11905;0;0;0;0;8;0;10981;0;0;0;0;9;0;5782;0;0;41;1
29.01.19;17:10:00;1;584;6664;0;2;0;7603;6;0;382;12;3;0;4413;6;2;456;14;4;0;5904;1;0;130;8;5;0;17141;23;0;0;403;523;21;6;0;13290;23;6;4;180;523;20;7;0;11905;6;0;291;14;8;0;10981;6;0;290;13;9;0;5782;6;0;300;9
29.01.19;17:05:00;1;618;6615;0;2;2;7603;6;5;397;12;3;1;4413;6;3;493;14;4;0;5904;1;0;182;9;5;3;17141;1;0;0;430;662;22;6;0;13290;23;5;5;254;577;20;7;0;11905;6;0;376;15;8;0;10981;6;0;389;14;9;0;5782;6;0;402;9
29.01.19;17:00:00;1;613;6564;0;2;7;7603;6;19;396;13;3;5;4413;6;11;487;14;4;0;5904;1;0;215;9;5;59;17141;1;7;12;390;618;23;6;0;13290;23;8;5;424;601;21;7;0;11905;6;2;443;15;8;0;10981;6;0;451;14;9;0;5782;4;0;472;10
29.01.19;16:55:00;1;574;6512;0;2;22;7602;6;36;397;13;3;0;4412;6;6;538;14;4;0;5904;3;0;212;10;5;104;17135;4;27;26;378;599;23;6;24;13290;1;13;10;545;415;21;7;4;11905;6;7;469;15;8;2;10981;3;11;460;14;9;2;5782;3;5;494;10
29.01.19;16:50:00;1;578;6464;0;2;59;7601;4;95;377;14;3;4;4412;4;9;541;14;4;0;5904;3;0;199;10;5;138;17126;4;48;40;378;599;23;6;63;13288;4;60;33;458;218;22;7;27;11905;6;40;428;16;8;14;10981;6;25;454;15;9;1;5782;6;6;537;10
29.01.19;16:45:00;1;585;6392;0;2;111;7596;4;148;383;14;3;26;4412;3;45;536;15;4;13;5904;3;13;198;10;5;176;17114;4;67;57;378;599;23;6;81;13282;4;65;37;458;218;22;7;51;11903;4;104;460;16;8;48;10980;4;92;448;15;9;3;5782;6;7;560;10
29.01.19;16:40:00;1;442;6343;0;2;377;7586;4;418;401;14;3;139;4409;4;178;472;15;4;27;5903;3;28;197;10;5;222;17099;4;93;83;378;599;23;6;116;13275;4;93;55;458;219;22;7;121;11899;4;169;456;17;8;82;10976;4;122;483;16;9;15;5782;6;24;531;11
29.01.19;16:35:00;1;651;6303;0;2;355;7556;4;397;380;14;3;162;4398;4;204;507;15;4;79;5901;5;82;208;10;5;318;17080;4;150;125;378;599;23;6;165;13265;4;105;57;458;219;22;7;127;11889;4;170;500;17;8;92;10969;4;131;476;16;9;7;5781;6;10;568;11
29.01.19;16:30:00;1;789;6243;0;2;203;7525;4;243;384;14;3;98;4384;4;136;460;15;4;36;5895;3;37;197;10;5;276;17053;4;130;105;378;599;23;6;143;13251;4;88;47;457;237;22;7;117;11878;4;174;497;17;8;114;10961;4;154;439;16;9;6;5780;6;11;558;11
29.01.19;16:25:00;1;758;6180;0;2;386;7509;4;430;391;15;3;178;4376;4;218;452;15;4;90;5892;3;93;200;10;5;442;17029;4;215;180;401;626;23;6;301;13239;4;137;145;524;488;22;7;296;11868;4;328;466;17;8;205;10952;4;245;484;16;9;19;5779;3;28;557;12
29.01.19;16:20:00;1;613;6118;0;2;658;7477;4;711;390;15;3;300;4361;4;343;431;15;4;148;5884;5;154;203;10;5;730;16990;4;356;303;435;697;23;6;549;13211;4;273;289;612;586;22;7;601;11844;4;657;443;18;8;393;10935;4;433;468;17;9;81;5778;4;112;503;12
29.01.19;16:15:00;1;415;6068;0;2;917;7421;4;981;402;15;3;411;4336;4;457;456;15;4;211;5872;5;220;213;10;5;1017;16927;4;517;426;432;702;24;6;788;13163;4;401;415;615;589;22;7;1014;11793;4;1088;465;18;8;631;10902;4;685;447;17;9;124;5771;4;158;542;12
29.01.19;16:10:00;1;353;6033;0;2;1115;7344;4;1182;404;15;3;459;4301;4;513;471;15;4;257;5854;5;267;212;11;5;1272;16841;4;652;541;439;722;24;6;962;13098;4;478;489;617;593;22;7;1117;11709;4;1186;481;18;8;835;10850;4;889;431;17;9;183;5761;4;218;564;13
29.01.19;16:05:00;1;382;6003;0;2;910;7253;4;973;398;15;3;390;4263;4;442;508;15;4;232;5833;5;242;220;11;5;1184;16731;4;600;500;428;707;24;6;909;13014;4;428;442;608;578;22;7;1094;11619;4;1153;473;18;8;837;10782;4;896;434;17;9;228;5746;4;265;553;13
29.01.19;16:00:00;1;752;5971;0;2;627;7175;4;680;384;16;3;282;4230;4;330;515;15;4;175;5813;5;182;230;11;5;960;16637;4;481;396;422;704;24;6;726;12941;4;350;370;605;575;23;7;738;11528;4;803;495;18;8;650;10714;4;696;450;17;9;210;5727;4;241;449;13
29.01.19;15:55:00;1;243;5923;0;2;1471;7124;4;1554;398;16;3;580;4207;4;638;505;15;4;311;5799;5;324;223;11;5;1968;16547;4;1042;840;437;736;24;6;1500;12873;4;766;766;623;585;23;7;1765;11469;4;1859;509;19;8;1469;10662;4;1550;485;18;9;413;5709;4;450;360;14
29.01.19;15:50:00;1;563;5894;0;2;1853;7004;4;1949;400;16;3;694;4160;4;758;479;15;4;376;5773;5;392;233;11;5;2427;16377;4;1310;1031;446;729;24;6;1883;12744;4;973;945;617;592;23;7;2516;11326;4;2644;490;18;8;2187;10542;4;2288;494;17;9;785;5676;4;836;391;14
29.01.19;15:45:00;1;352;5850;0;2;1852;6851;4;1948;407;16;3;728;4102;4;792;493;15;4;366;5742;5;381;242;11;5;2604;16174;4;1429;1100;447;740;24;6;2049;12587;4;1073;1051;624;594;22;7;2309;11118;4;2427;487;18;8;2120;10359;4;2223;466;17;9;793;5611;4;848;456;15
29.01.19;15:40:00;1;280;5826;0;2;2022;6696;4;2123;390;15;3;684;4041;4;747;493;15;4;387;5711;5;403;237;11;5;2987;15957;4;1670;1258;449;755;23;6;2359;12417;4;1201;1189;631;591;22;7;2394;10922;4;2513;489;18;8;2435;10180;4;2557;498;17;9;1097;5543;4;1165;481;15
29.01.19;15:35:00;1;547;5802;0;2;1819;6528;4;1908;369;15;3;688;3984;4;753;537;15;4;356;5679;5;370;222;11;5;3044;15707;4;1718;1260;447;760;23;6;2441;12219;4;1260;1237;632;589;22;7;2738;10727;4;2875;473;18;8;2857;9976;4;3001;518;17;9;1311;5451;4;1392;497;15
29.01.19;15:30:00;1;282;5754;0;2;1745;6375;4;1831;368;14;3;596;3926;4;660;552;15;4;369;5649;5;385;225;11;5;3214;15454;4;1848;1314;451;766;23;6;2635;12016;4;1343;1332;627;595;22;7;3299;10497;4;3466;490;17;8;3133;9735;4;3288;513;16;9;1584;5341;4;1682;514;15
29.01.19;15:25:00;1;283;5730;0;2;1690;6230;4;1775;363;14;3;629;3877;4;698;561;15;4;384;5618;5;400;228;11;5;3324;15181;4;1953;1325;451;774;22;6;2761;11793;4;1402;1407;638;593;22;7;3440;10223;4;3608;488;17;8;3106;9473;4;3264;512;16;9;1754;5208;4;1862;536;14
29.01.19;15:20:00;1;549;5706;0;2;1679;6089;4;1761;353;13;3;631;3824;4;698;548;14;4;458;5586;5;477;244;11;5;3561;14905;4;2116;1406;458;788;22;6;3009;11564;4;1531;1564;634;596;22;7;3427;9937;4;3593;502;16;8;3051;9214;4;3206;523;15;9;1702;5062;4;1809;563;14
29.01.19;15:15:00;1;223;5662;0;2;1642;5949;4;1725;366;13;3;562;3772;4;624;552;14;4;449;5549;5;467;240;11;5;3277;14606;4;1951;1291;427;779;22;6;3004;11311;4;1493;1591;637;597;21;7;3314;9651;4;3489;512;16;8;2789;8960;4;2925;529;15;9;1693;4920;4;1798;532;13
29.01.19;15:10:00;1;257;5642;0;2;1714;5812;4;1799;376;12;3;634;3725;4;703;552;14;4;514;5511;5;535;232;10;5;3298;14331;4;2041;1233;402;713;22;6;3284;11058;4;1438;1915;668;628;21;7;3334;9375;4;3504;519;15;8;2611;8726;4;2750;536;15;9;1609;4780;4;1711;529;12
29.01.19;15:05:00;1;731;5621;0;2;498;5669;4;544;384;11;3;192;3672;4;239;527;14;4;250;5468;5;260;245;11;5;1170;14083;4;721;386;387;600;22;6;1168;10807;4;454;750;675;618;21;7;1096;9104;4;1162;496;15;8;828;8516;4;883;505;14;9;500;4649;4;549;529;12
29.01.19;15:00:00;1;248;5575;0;2;383;5627;4;426;387;11;3;156;3656;4;200;524;14;4;195;5447;5;204;235;11;5;893;13987;4;570;274;362;575;22;6;871;10710;4;358;541;630;502;21;7;853;9011;4;917;489;15;8;636;8446;4;695;516;15;9;388;4607;4;432;505;11
29.01.19;14:55:00;1;214;5555;0;2;266;5594;4;303;354;11;3;120;3643;4;161;500;14;4;139;5431;5;145;242;11;5;667;13914;4;418;209;360;599;22;6;521;10640;4;201;336;461;353;21;7;656;8939;4;710;500;16;8;490;8393;4;535;504;15;9;293;4574;4;334;511;11
29.01.19;14:50:00;1;782;5537;0;2;172;5572;4;209;376;11;3;87;3633;4;125;490;13;4;93;5419;5;97;212;11;5;435;13859;4;249;149;345;599;22;6;390;10597;4;154;274;458;319;21;7;553;8884;4;620;481;16;8;423;8352;4;480;513;15;9;255;4550;4;289;509;11
29.01.19;14:45:00;1;213;5494;0;2;107;5557;4;144;386;11;3;17;3625;3;30;552;13;4;56;5411;3;58;198;11;5;313;13824;4;169;108;367;599;22;6;312;10566;4;93;182;463;317;21;7;445;8838;4;499;474;16;8;334;8316;4;379;511;15;9;197;4529;4;228;475;11
29.01.19;14:40:00;1;214;5476;0;2;135;5548;4;180;453;11;3;15;3623;6;24;605;14;4;113;5407;3;117;231;11;5;421;13798;4;216;162;344;600;22;6;498;10539;4;176;294;610;314;21;7;652;8801;4;707;503;16;8;479;8288;4;525;476;15;9;260;4512;4;296;466;12
29.01.19;14:35:00;1;451;5458;0;2;292;5537;4;343;457;12;3;135;3622;4;183;594;14;4;214;5397;5;223;244;11;5;616;13762;4;318;240;460;583;22;6;821;10496;4;307;535;638;305;21;7;1211;8747;4;1282;521;16;8;796;8249;4;850;438;15;9;440;4490;4;484;441;12
29.01.19;14:30:00;1;214;5416;0;2;362;5513;4;415;463;12;3;178;3611;4;227;591;14;4;229;5380;5;239;254;11;5;670;13710;4;353;238;469;548;22;6;878;10427;4;285;605;557;311;21;7;1324;8648;4;1398;527;16;8;780;8183;4;828;443;15;9;361;4454;4;398;446;12
29.01.19;14:25:00;1;212;5398;0;2;261;5483;4;308;449;12;3;115;3596;4;158;528;14;4;158;5361;5;165;246;11;5;434;13658;4;232;164;387;584;22;6;636;10355;4;204;508;464;313;21;7;1106;8538;4;1186;518;16;8;592;8118;4;641;450;15;9;200;4424;4;238;522;11
29.01.19;14:20:00;1;244;5380;0;2;129;5461;4;172;431;12;3;25;3587;4;40;547;14;4;73;5347;5;76;206;11;5;264;13621;4;130;94;378;599;22;6;356;10302;4;114;257;458;259;21;7;574;8442;4;626;501;16;8;289;8067;4;329;441;15;9;23;4407;4;30;610;11
29.01.19;14:15:00;1;240;5338;0;2;107;5450;4;148;432;12;3;5;3584;6;12;581;14;4;55;5341;3;58;197;12;5;260;13599;4;124;88;378;599;22;6;332;10273;4;129;269;480;236;22;7;417;8393;4;456;522;16;8;137;8043;4;201;430;15;9;23;4404;4;29;588;11
29.01.19;14:10:00;1;255;5318;0;2;239;5441;4;287;443;12;3;109;3584;4;158;579;15;4;168;5336;3;175;246;12;5;522;13577;4;288;180;456;525;23;6;648;10245;4;256;414;588;220;22;7;893;8358;4;962;508;16;8;352;8031;4;403;473;15;9;196;4402;4;233;554;12